Weather History for Marrakech, Morocco

Change the Weather History Date:

Sunday, September 16, 2012

  Actual Average Record
Temperature  
Mean Temperature 84 °F -  
Max Temperature 101 °F 84 °F - ()
Min Temperature 66 °F 61 °F - ()
Cooling Degree Days 18    
Growing Degree Days 34 (Base 50)    
Moisture  
Dew Point 58 °F    
Average Humidity 47    
Maximum Humidity 88    
Minimum Humidity 11    
Precipitation  
Precipitation 0.00 in 0.02 in - ()
Sea Level Pressure  
Sea Level Pressure 29.99 in    
Wind  
Wind Speed 5 mph ()    
Max Wind Speed 9 mph    
Max Gust Speed -    
Visibility 5.9 miles    
Events      
T = Trace of Precipitation, MM = Missing Value Source: Averaged Metar Reports

Daily Weather History Graph

Daily Weather History Graph

Search for Another Location

Airport:

Trip Planner

Search our weather history database for the weather conditions in past years. The results will help you decide how hot, cold, wet, or windy it might be!

Date:

Astronomy

Sep. 16, 2012 Rise Set
Actual Time 7:16 AM WEST 7:36 PM WEST
Civil Twilight 6:52 AM WEST 8:00 PM WEST
Nautical Twilight 6:24 AM WEST 8:29 PM WEST
Astronomical Twilight 5:55 AM WEST 8:57 PM WEST
Moon 7:35 AM WEST (9/16) 7:40 PM WEST (9/16)
Length of Visible Light 13h 08m
Length of Day
12h 19m
New Moon, 0% of the Moon is Illuminated
Sep 16
New Moon
Sep 22
First Quarter
Sep 30
Full
Oct 8
Last Quarter
Oct 15
New

Hourly Weather History & Observations

Time (WEST) Temp. Heat Index Dew Point Humidity Pressure Visibility Wind Dir Wind Speed Gust Speed Precip Events Conditions
12:00 AM 75.2 °F - 62.6 °F 65% 30.01 in - WSW 8.1 mph - N/A   Clear
12:30 AM 73.4 °F - 60.8 °F 65% 30.01 in - West 5.8 mph - N/A   Clear
1:00 AM 73 °F - 61 °F 58% 29.96 in 6 mi West 8.1 mph - -  
1:00 AM 73.4 °F - 60.8 °F 65% 30.01 in - West 8.1 mph - N/A   Clear
3:30 AM 68.0 °F - 64.4 °F 88% 30.01 in - SW 9.2 mph - N/A   Clear
4:00 AM 69 °F - 65 °F 82% 29.96 in 6 mi SSW 5.8 mph - -  
4:00 AM 68.0 °F - 64.4 °F 88% 30.01 in - SW 5.8 mph - N/A   Clear
4:30 AM 69.8 °F - 64.4 °F 83% 30.01 in - SSW 6.9 mph - N/A   Clear
5:00 AM 69.8 °F - 64.4 °F 83% 30.01 in - SSW 5.8 mph - N/A   Clear
5:30 AM 69.8 °F - 62.6 °F 78% 30.01 in - SSW 3.5 mph - N/A   Clear
6:00 AM 68.0 °F - 62.6 °F 83% 30.01 in - Calm Calm - N/A   Clear
6:30 AM 68.0 °F - 62.6 °F 83% 30.01 in - NNE 2.3 mph - N/A   Clear
7:00 AM 68 °F - 63 °F 79% 29.96 in 6 mi WNW 1.2 mph - -  
7:00 AM 68.0 °F - 62.6 °F 83% 30.01 in - WNW 1.2 mph - N/A   Clear
7:30 AM 68.0 °F - 62.6 °F 83% 30.01 in - Variable 2.3 mph - N/A   Clear
8:00 AM 69.8 °F - 62.6 °F 78% 30.01 in - Calm Calm - N/A   Clear
8:30 AM 73.4 °F - 64.4 °F 73% 30.01 in - SE 6.9 mph - N/A   Clear
9:00 AM 75.2 °F - 64.4 °F 69% 30.01 in - ESE 5.8 mph - N/A   Clear
9:30 AM 78.8 °F - 64.4 °F 61% 30.01 in - Variable 2.3 mph - N/A   Clear
10:00 AM 82 °F - 64 °F 45% 29.94 in 6 mi Calm Calm - -  
10:00 AM 82.4 °F 83.9 °F 64.4 °F 54% 30.04 in 5.6 mi Calm Calm - N/A   Unknown
10:30 AM 84.2 °F 85.6 °F 64.4 °F 51% 30.04 in 5.0 mi Calm Calm - N/A   Unknown
11:00 AM 86.0 °F 87.3 °F 64.4 °F 48% 30.04 in 5.0 mi Calm Calm - N/A   Unknown
11:30 AM 86.0 °F 86.6 °F 62.6 °F 45% 30.04 in 5.0 mi Calm Calm - N/A   Unknown
12:00 PM 87.8 °F 87.1 °F 59.0 °F 38% 30.04 in - Calm Calm - N/A   Clear
12:30 PM 87.8 °F 87.6 °F 60.8 °F 40% 30.01 in - Calm Calm - N/A   Clear
1:00 PM 91 °F - 60 °F 26% 29.90 in 6 mi NW 6.9 mph - -  
1:00 PM 91.4 °F 91.4 °F 60.8 °F 36% 30.01 in - NW 6.9 mph - N/A   Clear
1:30 PM 93.2 °F 92.6 °F 59.0 °F 32% 30.01 in - Variable 5.8 mph - N/A   Clear
2:00 PM 95.0 °F 93.0 °F 55.4 °F 26% 29.98 in - Variable 5.8 mph - N/A   Clear
2:30 PM 96.8 °F - 51.8 °F 22% 29.98 in - WNW 8.1 mph - N/A   Clear
3:00 PM 98.6 °F - 51.8 °F 21% 29.98 in - West 5.8 mph - N/A   Clear
3:30 PM 98.6 °F - 51.8 °F 21% 29.95 in - WSW 5.8 mph - N/A   Clear
4:00 PM 100 °F - 51 °F 12% 29.83 in 6 mi NNW 4.6 mph - -   Scattered Clouds
4:00 PM 98.6 °F - 51.8 °F 21% 29.95 in 6.2 mi Variable 4.6 mph - N/A   Partly Cloudy
4:30 PM 100.4 °F - 50.0 °F 18% 29.95 in 6.2 mi WNW 6.9 mph - N/A   Partly Cloudy
5:00 PM 100.4 °F - 50.0 °F 18% 29.95 in 6.2 mi WNW 8.1 mph - N/A   Partly Cloudy
5:30 PM 100.4 °F - 50.0 °F 18% 29.95 in 6.2 mi Variable 4.6 mph - N/A   Partly Cloudy
6:00 PM 100.4 °F - 46.4 °F 16% 29.95 in 6.2 mi NNW 4.6 mph - N/A   Partly Cloudy
6:30 PM 98.6 °F - 46.4 °F 17% 29.95 in 6.2 mi NW 5.8 mph - N/A   Partly Cloudy
7:00 PM 98 °F - 48 °F 11% 29.83 in 6 mi NNW 5.8 mph - -   Scattered Clouds
7:00 PM 98.6 °F - 46.4 °F 17% 29.95 in 6.2 mi NNW 5.8 mph - N/A   Partly Cloudy
7:30 PM 93.2 °F - 50.0 °F 23% 29.98 in - North 6.9 mph - N/A   Clear
8:00 PM 91.4 °F - 50.0 °F 24% 29.98 in - North 5.8 mph - N/A   Clear
8:30 PM 89.6 °F - 50.0 °F 26% 29.98 in - North 4.6 mph - N/A   Clear
9:00 PM 89.6 °F - 51.8 °F 27% 29.98 in - North 6.9 mph - N/A   Clear
9:30 PM 87.8 °F 87.1 °F 59.0 °F 38% 30.01 in - North 6.9 mph - N/A   Clear
10:00 PM 85 °F - 59 °F 32% 29.92 in 6 mi North 3.5 mph - -  
10:00 PM 86.0 °F 85.4 °F 59.0 °F 40% 30.01 in - North 5.8 mph - N/A   Clear
10:30 PM 84.2 °F 83.8 °F 59.0 °F 42% 30.04 in - North 2.3 mph - N/A   Clear
11:00 PM 82.4 °F 82.0 °F 57.2 °F 42% 30.04 in - NNE 3.5 mph - N/A   Clear
11:30 PM 78.8 °F - 60.8 °F 54% 30.04 in - Calm Calm - N/A   Clear